Flag for U.S.A. Weather past 2 weeks in Leesburg, Virginia, U.S.A.

Now
86 °F

Sunny.


Feels Like: 89 °F
Forecast: 63 / 87 °F
Wind: 8 mph from West

Location: Leesburg / Godfrey

Current Time: Aug 29, 2015 at 1:42:14 PM

Latest Report: Aug 29, 2015 at 1:15 PM


Visibility: 10 mi

Pressure: 30.18 "Hg

Humidity: 55%

Dew point: 68 °F

Location of LeesburgLocation

Historic Weather in Leesburg — Graph

°F

Leesburg temperature yesterday

Maximum temperature yesterday: 86 °F (at 3:15 PM)
Minimum temperature yesterday: 59 °F (at 3:55 AM)
Average temperature yesterday: 72 °F

Past Weeks' High & Low Weather Summary

 TemperatureHumidityPressure
High97 °F (Aug 17, 2:15 PM)100% (Aug 15, 5:15 AM)30.24 "Hg (Aug 15, 5:15 AM)
Low57 °F (Aug 23, 6:15 AM)32% (Aug 17, 4:55 PM)29.83 "Hg (Aug 24, 3:35 PM)
Average75 °F74%30.06 "Hg
* Reported Aug 14 12:15 PM — Aug 29 12:15 PM, Leesburg, Weather by CustomWeather, © 2015

Note: Actual official high and low records may vary slightly from our data, if they occured in-between our weather recording intervals... More about our weather records

Advertising

Leesburg weather history for previous 24 hours

 ConditionsComfort  
Time TempWeatherWind HumidityBarometerVisibility
12:15 PM
Sat, Aug 29
82 °FSunny.7 mph58%30.21 "Hg10 mi
11:55 AM81 °FSunny.7 mph62%30.21 "Hg10 mi
11:35 AM81 °FSunny.7 mph66%30.22 "Hg10 mi
11:15 AM79 °FSunny.8 mph70%30.22 "Hg10 mi
10:55 AM79 °FSunny.3 mph70%30.23 "Hg10 mi
10:35 AM77 °FSunny.3 mph69%30.23 "Hg10 mi
10:15 AM77 °FSunny.3 mph69%30.23 "Hg10 mi
9:55 AM73 °FSunny.3 mph78%30.23 "Hg10 mi
9:35 AM72 °FSunny.3 mph78%30.22 "Hg10 mi
9:15 AM72 °FScattered clouds.3 mph78%30.22 "Hg10 mi
8:55 AM70 °FScattered clouds.No wind83%30.22 "Hg10 mi
8:35 AM70 °FSunny.5 mph83%30.23 "Hg10 mi
7:55 AM66 °FSunny.No wind94%30.23 "Hg10 mi
7:35 AM66 °FScattered clouds.3 mph94%30.22 "Hg10 mi
7:15 AM63 °FPassing clouds.No wind100%30.22 "Hg7 mi
6:55 AM63 °FClear.No wind100%30.21 "Hg10 mi
6:15 AM63 °FPassing clouds.No wind100%30.21 "Hg7 mi
5:55 AM63 °FClear.No wind100%30.20 "Hg10 mi
5:35 AM63 °FPassing clouds.No wind100%30.20 "Hg10 mi
5:15 AM63 °FPassing clouds.No wind100%30.20 "Hg10 mi
4:55 AM64 °FPassing clouds.No wind94%30.20 "Hg10 mi
3:55 AM66 °FPassing clouds.3 mph94%30.21 "Hg10 mi
3:15 AM64 °FClear.3 mph94%30.20 "Hg10 mi
2:55 AM68 °FClear.5 mph88%30.20 "Hg10 mi
1:55 AM66 °FPassing clouds.No wind94%30.22 "Hg10 mi
1:35 AM68 °FMostly cloudy.No wind88%30.22 "Hg10 mi
1:15 AM68 °FMostly cloudy.No wind88%30.22 "Hg10 mi
12:55 AM68 °FOvercast.No wind88%30.23 "Hg10 mi
12:35 AM68 °FPassing clouds.No wind88%30.22 "Hg10 mi
11:55 PM
Fri, Aug 28
68 °FPassing clouds.3 mph88%30.22 "Hg10 mi
11:15 PM70 °FClear.No wind83%30.21 "Hg10 mi
10:55 PM70 °FPassing clouds.5 mph83%30.21 "Hg10 mi
10:35 PM72 °FOvercast.5 mph78%30.21 "Hg10 mi
10:15 PM75 °FPassing clouds.10 mph69%30.21 "Hg10 mi
9:55 PM73 °FClear.9 mph74%30.21 "Hg10 mi
9:35 PM70 °FClear.No wind83%30.20 "Hg10 mi
9:15 PM72 °FClear.7 mph78%30.19 "Hg10 mi
8:55 PM73 °FClear.6 mph74%30.18 "Hg10 mi
8:35 PM73 °FSunny.3 mph74%30.18 "Hg10 mi
8:15 PM73 °FSunny.No wind74%30.16 "Hg10 mi
7:55 PM79 °FSunny.No wind58%30.16 "Hg10 mi
7:35 PM79 °FSunny.No wind61%30.15 "Hg10 mi
7:15 PM81 °FSunny.8 mph58%30.14 "Hg10 mi
6:55 PM82 °FSunny.6 mph51%30.14 "Hg10 mi
6:35 PM82 °FSunny.7 mph51%30.14 "Hg10 mi
6:15 PM82 °FSunny.12 mph48%30.14 "Hg10 mi
5:55 PM82 °FSunny.No wind45%30.15 "Hg10 mi
5:15 PM84 °FSunny.7 mph48%30.15 "Hg10 mi
4:55 PM82 °FSunny.3 mph48%30.15 "Hg10 mi
4:35 PM82 °FSunny.3 mph48%30.15 "Hg10 mi
4:15 PM84 °FSunny.5 mph48%30.16 "Hg10 mi
3:55 PM82 °FSunny.6 mph48%30.16 "Hg10 mi
3:35 PM82 °FSunny.6 mph48%30.16 "Hg10 mi
3:15 PM86 °FScattered clouds.3 mph46%30.18 "Hg10 mi
2:55 PM82 °FMostly cloudy.5 mph51%30.19 "Hg10 mi
2:35 PM81 °FBroken clouds.3 mph54%30.19 "Hg10 mi
2:15 PM82 °FScattered clouds.No wind51%30.20 "Hg10 mi
1:55 PM81 °FScattered clouds.9 mph54%30.21 "Hg10 mi
1:35 PM81 °FScattered clouds.8 mph51%30.21 "Hg10 mi
1:15 PM82 °FScattered clouds.3 mph48%30.21 "Hg10 mi
Weather by CustomWeather, © 2015

See weather overviewHow to use our weather pages